EW7114 Weather Reports


time (UTC)temp
C
wind
direction
speed
KPH
gust
KPH
rain 1hr
cm
rain 24hr
cm
rain mn
cm
humidity
%
barometer
mb
20260904032502 23 137 22.5 33.8 0.00 0.00 0.00 24 1000.3
20260904032001 23 152 24.1 38.6 0.00 0.00 0.00 23 1000.3
20260904031611 23 143 22.5 38.6 0.00 0.00 0.00 23 1000.2
20260904031058 24 141 24.1 41.8 0.00 0.00 0.00 24 1000.1
20260904030557 24 138 24.1 41.8 0.00 0.00 0.00 24 1000.1
20260904030055 24 136 27.4 46.7 0.00 0.00 0.00 23 1000.1
20260904025554 24 126 32.2 46.7 0.00 0.00 0.00 23 1000.1
20260904025053 23 137 27.4 35.4 0.00 0.00 0.00 24 1000.0
20260904024550 23 118 27.4 35.4 0.00 0.00 0.00 24 999.9
20260904024051 23 138 19.3 29.0 0.00 0.00 0.00 25 999.9
20260904023547 23 113 20.9 29.0 0.00 0.00 0.00 25 999.9
20260904023046 23 124 22.5 32.2 0.00 0.00 0.00 25 1000.1
20260904022545 23 155 17.7 24.1 0.00 0.00 0.00 24 1000.0
20260904022044 24 152 17.7 33.8 0.00 0.00 0.00 23 999.9
20260904021549 24 176 25.7 38.6 0.00 0.00 0.00 22 1000.0
20260904021041 24 185 27.4 38.6 0.00 0.00 0.00 22 999.8
20260904020540 24 197 25.7 40.2 0.00 0.00 0.00 22 999.9
20260904020042 24 194 25.7 40.2 0.00 0.00 0.00 22 1000.0
20260904015536 24 176 17.7 30.6 0.00 0.00 0.00 22 999.9
20260904015035 25 157 20.9 38.6 0.00 0.00 0.00 22 1000.0
20260904014533 25 155 22.5 38.6 0.00 0.00 0.00 21 1000.1
20260904014032 25 161 22.5 32.2 0.00 0.00 0.00 21 1000.1
20260904013534 25 161 20.9 38.6 0.00 0.00 0.00 21 1000.0
20260904013029 26 165 25.7 38.6 0.00 0.00 0.00 21 1000.1
20260904012527 26 158 29.0 45.1 0.00 0.00 0.00 21 1000.1
20260904012026 26 142 32.2 45.1 0.00 0.00 0.00 21 1000.1
20260904011525 26 168 25.7 35.4 0.00 0.00 0.00 20 1000.1
20260904011024 26 202 29.0 35.4 0.00 0.00 0.00 21 1000.2
20260904010524 26 190 24.1 48.3 0.00 0.00 0.00 20 1000.1
20260904010022 26 174 30.6 48.3 0.00 0.00 0.00 20 1000.2
20260904005519 26 145 24.1 38.6 0.00 0.00 0.00 20 1000.2
20260904005020 26 191 25.7 40.2 0.00 0.00 0.00 20 1000.3
20260904004515 27 191 29.0 40.2 0.00 0.00 0.00 20 1000.3
20260904004013 27 165 25.7 49.9 0.00 0.00 0.00 20 1000.3
20260904003511 27 194 32.2 49.9 0.00 0.00 0.00 20 1000.4
20260904003011 27 163 25.7 40.2 0.00 0.00 0.00 20 1000.3
20260904002509 27 174 24.1 40.2 0.00 0.00 0.00 20 1000.3
20260904002007 27 177 29.0 48.3 0.00 0.00 0.00 20 1000.3
20260904001505 27 172 25.7 41.8 0.00 0.00 0.00 22 1000.3
20260904001005 27 153 20.9 37.0 0.00 0.00 0.00 22 1000.3
20260904000506 27 144 25.7 35.4 0.00 0.00 0.00 22 1000.3
20260904000002 27 147 20.9 33.8 0.00 0.00 0.00 21 1000.4
20260903235603 27 142 25.7 35.4 0.00 0.00 0.00 22 1000.4
20260903235058 27 157 24.1 35.4 0.00 0.00 0.00 20 1000.5
20260903234557 28 167 25.7 37.0 0.00 0.00 0.00 20 1000.5
20260903234055 28 151 29.0 35.4 0.00 0.00 0.00 20 1000.6
20260903233554 28 140 22.5 40.2 0.00 0.00 0.00 20 1000.5
20260903233053 28 167 25.7 40.2 0.00 0.00 0.00 19 1000.7
20260903232551 28 162 20.9 30.6 0.00 0.00 0.00 21 1000.7
20260903232049 27 147 24.1 41.8 0.00 0.00 0.00 21 1000.7
20260903231554 26 155 25.7 45.1 0.00 0.00 0.00 21 1000.9
20260903231046 26 144 22.5 35.4 0.00 0.00 0.00 21 1000.8
20260903230547 26 184 22.5 35.4 0.00 0.00 0.00 20 1000.9
20260903230048 26 190 25.7 35.4 0.00 0.00 0.00 21 1001.1
20260903225543 26 145 25.7 38.6 0.00 0.00 0.00 21 1001.0
20260903225040 27 160 27.4 41.8 0.00 0.00 0.00 20 1001.3
20260903224544 27 168 22.5 41.8 0.00 0.00 0.00 20 1001.4
20260903224042 27 169 20.9 41.8 0.00 0.00 0.00 21 1001.4
20260903223536 27 190 24.1 32.2 0.00 0.00 0.00 22 1001.4
20260903223036 27 161 25.7 37.0 0.00 0.00 0.00 21 1001.4
20260903222535 27 172 17.7 33.8 0.00 0.00 0.00 21 1001.6
20260903222032 27 153 22.5 37.0 0.00 0.00 0.00 21 1001.7
20260903221544 27 163 24.1 37.0 0.00 0.00 0.00 21 1001.9
20260903221032 27 195 19.3 37.0 0.00 0.00 0.00 20 1001.8
20260903220527 27 192 24.1 38.6 0.00 0.00 0.00 21 1001.8
20260903220026 27 182 16.1 33.8 0.00 0.00 0.00 20 1001.9
20260903215526 27 184 22.5 35.4 0.00 0.00 0.00 19 1001.9
20260903215023 27 181 29.0 35.4 0.00 0.00 0.00 20 1002.0
20260903214522 27 167 20.9 38.6 0.00 0.00 0.00 20 1002.0
20260903214020 27 178 24.1 38.6 0.00 0.00 0.00 19 1002.1
20260903213518 27 138 24.1 35.4 0.00 0.00 0.00 19 1002.1
20260903213021 26 182 19.3 37.0 0.00 0.00 0.00 20 1001.9
20260903212515 26 179 24.1 37.0 0.00 0.00 0.00 20 1002.2
20260903212016 27 149 24.1 33.8 0.00 0.00 0.00 21 1002.1
20260903211512 27 185 17.7 27.4 0.00 0.00 0.00 21 1002.2
20260903211014 27 151 16.1 30.6 0.00 0.00 0.00 21 1002.3
20260903210509 26 152 22.5 41.8 0.00 0.00 0.00 21 1002.4
20260903210009 26 159 29.0 45.1 0.00 0.00 0.00 21 1002.5
20260903205506 26 132 22.5 38.6 0.00 0.00 0.00 21 1002.5
20260903205005 26 164 20.9 32.2 0.00 0.00 0.00 23 1002.6
20260903204506 26 119 17.7 32.2 0.00 0.00 0.00 23 1002.8
20260903204000 26 156 17.7 25.7 0.00 0.00 0.00 22 1002.9
20260903203601 26 163 11.3 30.6 0.00 0.00 0.00 23 1003.0
20260903203059 26 135 14.5 30.6 0.00 0.00 0.00 22 1003.0
20260903202557 26 188 17.7 37.0 0.00 0.00 0.00 21 1003.1
20260903202056 26 129 24.1 37.0 0.00 0.00 0.00 22 1003.2
20260903201554 26 195 16.1 38.6 0.00 0.00 0.00 21 1003.2
20260903201052 26 147 20.9 38.6 0.00 0.00 0.00 21 1003.4
20260903200552 26 128 22.5 35.4 0.00 0.00 0.00 21 1003.5
20260903200051 26 161 20.9 37.0 0.00 0.00 0.00 21 1003.5
20260903195548 26 151 22.5 43.5 0.00 0.00 0.00 20 1003.6
20260903195047 26 136 22.5 38.6 0.00 0.00 0.00 21 1003.6
20260903194546 26 138 25.7 38.6 0.00 0.00 0.00 21 1003.6
20260903194046 26 126 19.3 37.0 0.00 0.00 0.00 20 1003.8
20260903193542 25 154 25.7 37.0 0.00 0.00 0.00 22 1003.8
20260903193041 26 176 22.5 35.4 0.00 0.00 0.00 22 1003.8
20260903192540 26 155 19.3 33.8 0.00 0.00 0.00 20 1004.0
20260903192038 25 153 16.1 33.8 0.00 0.00 0.00 21 1003.9
20260903191539 25 140 12.9 35.4 0.00 0.00 0.00 21 1004.0
20260903191035 26 198 19.3 35.4 0.00 0.00 0.00 20 1004.1
20260903190536 25 151 22.5 37.0 0.00 0.00 0.00 21 1004.3
20260903190032 25 157 19.3 32.2 0.00 0.00 0.00 21 1004.3
20260903185530 25 200 19.3 30.6 0.00 0.00 0.00 20 1004.3
20260903185031 25 146 19.3 30.6 0.00 0.00 0.00 21 1004.4
20260903184527 25 166 24.1 29.0 0.00 0.00 0.00 20 1004.4
20260903184026 25 165 20.9 30.6 0.00 0.00 0.00 21 1004.5
20260903183525 25 150 22.5 32.2 0.00 0.00 0.00 21 1004.6
20260903183023 25 178 17.7 30.6 0.00 0.00 0.00 20 1004.5
20260903182521 25 127 17.7 33.8 0.00 0.00 0.00 22 1004.6
20260903182020 25 159 22.5 33.8 0.00 0.00 0.00 20 1004.8
20260903181518 25 226 22.5 37.0 0.00 0.00 0.00 21 1004.8
20260903181016 25 144 24.1 37.0 0.00 0.00 0.00 21 1004.9
20260903180518 25 140 27.4 37.0 0.00 0.00 0.00 21 1004.9
20260903180030 25 153 17.7 27.4 0.00 0.00 0.00 21 1004.9
20260903175512 25 172 16.1 37.0 0.00 0.00 0.00 21 1005.0
20260903175011 25 147 11.3 25.7 0.00 0.00 0.00 20 1004.9
20260903174509 25 203 17.7 27.4 0.00 0.00 0.00 20 1005.0
20260903174007 24 200 14.5 24.1 0.00 0.00 0.00 20 1005.1
20260903173506 24 221 9.7 27.4 0.00 0.00 0.00 20 1005.1
20260903173004 24 211 16.1 27.4 0.00 0.00 0.00 22 1005.0
20260903172503 24 253 16.1 25.7 0.00 0.00 0.00 21 1005.1
20260903172002 24 207 11.3 22.5 0.00 0.00 0.00 20 1005.2
20260903171600 23 192 9.7 19.3 0.00 0.00 0.00 20 1005.2
20260903171059 23 226 6.4 17.7 0.00 0.00 0.00 21 1005.2
20260903170602 23 227 8.0 17.7 0.00 0.00 0.00 22 1005.2
20260903170058 23 178 6.4 19.3 0.00 0.00 0.00 21 1005.3
20260903165558 23 202 8.0 20.9 0.00 0.00 0.00 22 1005.2
20260903165053 23 152 8.0 20.9 0.00 0.00 0.00 23 1005.2
20260903164601 23 136 9.7 22.5 0.00 0.00 0.00 22 1005.3
20260903164050 22 158 9.7 19.3 0.00 0.00 0.00 22 1005.3
20260903163549 22 122 6.4 16.1 0.00 0.00 0.00 25 1005.3
20260903163048 22 117 9.7 16.1 0.00 0.00 0.00 23 1005.3
20260903162545 22 125 11.3 16.1 0.00 0.00 0.00 27 1005.3
20260903162044 22 161 6.4 16.1 0.00 0.00 0.00 26 1005.4
20260903161543 21 153 8.0 14.5 0.00 0.00 0.00 23 1005.5
20260903161041 21 163 8.0 16.1 0.00 0.00 0.00 25 1005.5
20260903160540 21 124 9.7 16.1 0.00 0.00 0.00 27 1005.6
20260903160039 21 143 8.0 14.5 0.00 0.00 0.00 28 1005.6
20260903155540 20 178 11.3 16.1 0.00 0.00 0.00 27 1005.5
20260903155035 20 147 12.9 16.1 0.00 0.00 0.00 27 1005.6
20260903154535 20 157 9.7 19.3 0.00 0.00 0.00 30 1005.6
20260903154032 19 159 14.5 19.3 0.00 0.00 0.00 31 1005.7
20260903153530 18 135 11.3 17.7 0.00 0.00 0.00 33 1005.7
20260903153030 18 165 8.0 14.5 0.00 0.00 0.00 35 1005.9
20260903152530 18 171 9.7 14.5 0.00 0.00 0.00 34 1006.0
20260903152026 17 172 8.0 14.5 0.00 0.00 0.00 35 1005.9
20260903151528 17 158 9.7 14.5 0.00 0.00 0.00 35 1006.0
20260903151025 17 155 8.0 12.9 0.00 0.00 0.00 34 1006.0
20260903150523 17 176 9.7 12.9 0.00 0.00 0.00 36 1006.0
20260903150022 16 186 8.0 12.9 0.00 0.00 0.00 38 1006.0
20260903145520 15 165 11.3 14.5 0.00 0.00 0.00 39 1006.1
20260903145019 15 147 9.7 11.3 0.00 0.00 0.00 43 1006.1
20260903144517 14 153 8.0 14.5 0.00 0.00 0.00 44 1006.1
20260903144016 13 190 8.0 14.5 0.00 0.00 0.00 45 1006.1
20260903143516 13 143 8.0 11.3 0.00 0.00 0.00 46 1006.0
20260903143014 13 158 8.0 12.9 0.00 0.00 0.00 47 1006.1
20260903142511 12 159 6.4 11.3 0.00 0.00 0.00 52 1006.1
20260903142010 12 170 4.8 8.0 0.00 0.00 0.00 49 1006.1
20260903141508 11 198 4.8 8.0 0.00 0.00 0.00 47 1006.1
20260903141010 10 161 4.8 8.0 0.00 0.00 0.00 50 1006.1
20260903140506 10 161 4.8 8.0 0.00 0.00 0.00 45 1006.1
20260903140004 8 147 4.8 8.0 0.00 0.00 0.00 30 1006.0
20260903135502 7 146 4.8 9.7 0.00 0.00 0.00 19 1006.0
20260903135001 6 192 1.6 8.0 0.00 0.00 0.00 19 1005.9
20260903134559 6 176 3.2 8.0 0.00 0.00 0.00 20 1005.9
20260903134059 6 176 1.6 4.8 0.00 0.00 0.00 17 1005.8
20260903133556 6 1 3.2 4.8 0.00 0.00 0.00 22 1005.8
20260903133055 6 12 0.0 4.8 0.00 0.00 0.00 16 1005.7
20260903132553 6 12 0.0 4.8 0.00 0.00 0.00 15 1005.5
20260903132051 6 21 0.0 11.3 0.00 0.00 0.00 14 1005.5
20260903131550 5 77 0.0 11.3 0.00 0.00 0.00 26 1005.4
20260903131051 6 163 1.6 3.2 0.00 0.00 0.00 28 1005.3
20260903130550 5 163 1.6 4.8 0.00 0.00 0.00 21 1005.1
20260903130109 5 163 1.6 6.4 0.00 0.00 0.00 21 1005.0
20260903125544 5 163 1.6 6.4 0.00 0.00 0.00 23 1005.0
20260903125046 5 163 0.0 3.2 0.00 0.00 0.00 19 1005.0
20260903124541 5 163 1.6 3.2 0.00 0.00 0.00 21 1004.9
20260903124039 5 163 0.0 6.4 0.00 0.00 0.00 24 1004.9
20260903123538 5 163 3.2 8.0 0.00 0.00 0.00 30 1004.9
20260903123037 5 163 4.8 8.0 0.00 0.00 0.00 28 1004.9
20260903122538 5 163 4.8 8.0 0.00 0.00 0.00 28 1004.8
20260903122034 5 189 4.8 8.0 0.00 0.00 0.00 30 1004.8
20260903121540 6 189 0.0 4.8 0.00 0.00 0.00 19 1004.6
20260903121030 5 189 0.0 4.8 0.00 0.00 0.00 21 1004.6
20260903120532 5 189 0.0 4.8 0.00 0.00 0.00 25 1004.5
20260903120030 5 189 0.0 1.6 0.00 0.00 0.00 22 1004.5
20260903115526 5 189 0.0 3.2 0.00 0.00 0.00 18 1004.5
20260903115025 5 189 0.0 4.8 0.00 0.00 0.00 17 1004.4
20260903114524 5 189 0.0 4.8 0.00 0.00 0.00 16 1004.3
20260903114021 5 189 0.0 3.2 0.00 0.00 0.00 15 1004.4
20260903113521 5 189 0.0 6.4 0.00 0.00 0.00 17 1004.3
20260903113027 5 189 1.6 6.4 0.00 0.00 0.00 24 1004.3
20260903112517 5 189 1.6 6.4 0.00 0.00 0.00 27 1004.3
20260903112018 6 99 0.0 0.0 0.00 0.00 0.00 15 1004.2
20260903111514 6 99 0.0 3.2 0.00 0.00 0.00 10 1004.2
20260903111013 6 99 0.0 6.4 0.00 0.00 0.00 7 1004.1
20260903110512 6 99 0.0 3.2 0.00 0.00 0.00 16 1004.0
20260903110017 6 99 0.0 4.8 0.00 0.00 0.00 23 1003.9
20260903105508 6 234 1.6 4.8 0.00 0.00 0.00 26 1003.9
20260903105009 6 234 0.0 4.8 0.00 0.00 0.00 31 1003.8
20260903104506 6 234 0.0 8.0 0.00 0.00 0.00 34 1003.8
20260903104004 6 234 4.8 8.0 0.00 0.00 0.00 32 1003.8
20260903103505 7 120 0.0 4.8 0.00 0.00 0.00 26 1003.7
20260903103001 7 120 1.6 4.8 0.00 0.00 0.00 21 1003.7
20260903102559 7 120 0.0 6.4 0.00 0.00 0.00 18 1003.6
20260903102103 7 120 0.0 6.4 0.00 0.00 0.00 15 1003.6
20260903101605 7 219 0.0 0.0 0.00 0.00 0.00 13 1003.5
20260903101057 6 219 0.0 1.6 0.00 0.00 0.00 12 1003.5
20260903100554 6 219 0.0 6.4 0.00 0.00 0.00 25 1003.4
20260903100053 6 219 0.0 12.9 0.00 0.00 0.00 36 1003.4
20260903095551 6 224 6.4 12.9 0.00 0.00 0.00 38 1003.3
20260903095050 6 201 3.2 11.3 0.00 0.00 0.00 47 1003.2
20260903094554 8 201 3.2 11.3 0.00 0.00 0.00 50 1003.2
20260903094047 8 105 3.2 9.7 0.00 0.00 0.00 46 1003.1
20260903093547 8 105 1.6 9.7 0.00 0.00 0.00 43 1003.1
20260903093047 8 202 0.0 6.4 0.00 0.00 0.00 46 1003.0
20260903092546 8 202 0.0 8.0 0.00 0.00 0.00 41 1003.1
20260903092045 8 146 0.0 8.0 0.00 0.00 0.00 45 1003.0
20260903091543 8 146 1.6 8.0 0.00 0.00 0.00 49 1002.9
20260903091046 8 265 0.0 4.8 0.00 0.00 0.00 48 1002.9
20260903090542 8 265 1.6 4.8 0.00 0.00 0.00 53 1002.8
20260903090041 8 265 1.6 6.4 0.00 0.00 0.00 53 1002.7
20260903085540 9 265 0.0 6.4 0.00 0.00 0.00 53 1002.6
20260903085040 10 265 1.6 4.8 0.00 0.00 0.00 50 1002.7
20260903084540 10 265 0.0 9.7 0.00 0.00 0.00 53 1002.7
20260903084040 10 265 0.0 9.7 0.00 0.00 0.00 54 1002.6
20260903083539 11 265 0.0 0.0 0.00 0.00 0.00 54 1002.7
20260903083039 11 265 0.0 0.0 0.00 0.00 0.00 49 1002.6
20260903082537 10 265 0.0 4.8 0.00 0.00 0.00 53 1002.5
20260903082037 9 265 1.6 4.8 0.00 0.00 0.00 54 1002.6
20260903081542 8 265 1.6 4.8 0.00 0.00 0.00 54 1002.6
20260903081036 8 265 1.6 4.8 0.00 0.00 0.00 54 1002.5
20260903080518 8 265 3.2 4.8 0.00 0.00 0.00 55 1002.5
20260903080035 8 265 0.0 6.4 0.00 0.00 0.00 55 1002.4
20260903075535 10 265 3.2 6.4 0.00 0.00 0.00 54 1002.3
20260903075033 11 103 0.0 0.0 0.00 0.00 0.00 53 1002.3
20260903074534 11 103 0.0 0.0 0.00 0.00 0.00 53 1002.3
20260903074035 11 103 0.0 0.0 0.00 0.00 0.00 54 1002.3
20260903073530 11 103 0.0 0.0 0.00 0.00 0.00 54 1002.2
20260903073031 11 103 0.0 0.0 0.00 0.00 0.00 54 1002.2
20260903072529 10 103 0.0 6.4 0.00 0.00 0.00 54 1002.1
20260903072034 10 103 0.0 6.4 0.00 0.00 0.00 54 1002.0
20260903071528 10 239 0.0 8.0 0.00 0.00 0.00 54 1001.9
20260903071026 10 239 0.0 11.3 0.00 0.00 0.00 54 1001.9
20260903070524 12 234 4.8 8.0 0.00 0.00 0.00 52 1001.7
20260903070033 13 234 3.2 8.0 0.00 0.00 0.00 49 1001.7
20260903065523 14 234 3.2 8.0 0.00 0.00 0.00 47 1001.8
20260903065021 13 234 0.0 12.9 0.00 0.00 0.00 49 1001.7
20260903064521 14 228 8.0 12.9 0.00 0.00 0.00 50 1001.7
20260903064019 15 97 0.0 4.8 0.00 0.00 0.00 51 1001.6
20260903063518 15 97 0.0 4.8 0.00 0.00 0.00 46 1001.7
20260903063016 16 97 1.6 4.8 0.00 0.00 0.00 45 1001.6
20260903062516 16 97 1.6 4.8 0.00 0.00 0.00 42 1001.4
20260903062018 16 132 0.0 4.8 0.00 0.00 0.00 43 1001.4
20260903061515 16 132 3.2 6.4 0.00 0.00 0.00 44 1001.4
20260903061012 17 132 3.2 6.4 0.00 0.00 0.00 45 1001.4
20260903060512 17 143 4.8 8.0 0.00 0.00 0.00 44 1001.4
20260903060012 17 61 1.6 8.0 0.00 0.00 0.00 41 1001.3
20260903055510 17 329 3.2 12.9 0.00 0.00 0.00 41 1001.2
20260903055009 17 21 4.8 9.7 0.00 0.00 0.00 42 1001.2
20260903054529 17 62 0.0 8.0 0.00 0.00 0.00 41 1001.3
20260903054010 17 62 3.2 8.0 0.00 0.00 0.00 45 1001.2
20260903053509 17 212 1.6 8.0 0.00 0.00 0.00 44 1001.2
20260903053008 17 212 3.2 8.0 0.00 0.00 0.00 42 1001.2
20260903052508 17 350 3.2 6.4 0.00 0.00 0.00 43 1001.2
20260903052008 17 259 0.0 3.2 0.00 0.00 0.00 41 1001.2
20260903051508 18 330 0.0 3.2 0.00 0.00 0.00 41 1001.3
20260903051011 18 330 0.0 6.4 0.00 0.00 0.00 41 1001.4
20260903050507 18 330 3.2 6.4 0.00 0.00 0.00 39 1001.4
20260903050009 18 5 0.0 1.6 0.00 0.00 0.00 39 1001.4
20260903045510 18 9 0.0 3.2 0.00 0.00 0.00 39 1001.5
20260903045007 18 18 0.0 3.2 0.00 0.00 0.00 42 1001.4
20260903044507 18 14 0.0 6.4 0.00 0.00 0.00 38 1001.6
20260903044007 18 5 3.2 6.4 0.00 0.00 0.00 38 1001.6
20260903043506 18 307 3.2 6.4 0.00 0.00 0.00 37 1001.6
20260903043009 18 310 3.2 9.7 0.00 0.00 0.00 38 1001.6
20260903042506 18 310 4.8 9.7 0.00 0.00 0.00 39 1001.6
20260903042106 18 318 6.4 9.7 0.00 0.00 0.00 39 1001.5
20260903041506 18 318 6.4 9.7 0.00 0.00 0.00 38 1001.5
20260903041006 18 307 3.2 9.7 0.00 0.00 0.00 39 1001.4
20260903040505 19 307 6.4 12.9 0.00 0.00 0.00 36 1001.4
20260903040008 20 278 8.0 12.9 0.00 0.00 0.00 35 1001.3
20260903035505 21 328 3.2 9.7 0.00 0.00 0.00 33 1001.2
20260903035004 21 16 3.2 9.7 0.00 0.00 0.00 33 1001.1
20260903034504 21 326 3.2 8.0 0.00 0.00 0.00 33 1001.1
20260903034004 21 3 4.8 16.1 0.00 0.00 0.00 36 1001.1
20260903033503 21 330 6.4 16.1 0.00 0.00 0.00 31 1001.1
20260903033003 20 1 9.7 14.5 0.00 0.00 0.00 30 1001.1